sat.trackr.live / text

‹ back to catalog

HJS-6D

NORAD 63431 · 2025-067D

PAYLOAD ACTIVE UNKNOWN

§ Identity

Operator
Country
PRC
Launch date
2025-04-01
Launch site
JSC
Launch vehicle
Mass (kg)
RCS (m²)

External: N2YO · Heavens-Above · Gunter

§ Orbital elements

Epoch: 2026-05-25T05:33:26.798688Z

Period
94.42 min
Inclination
54.9895°
Eccentricity
0.0002600
Mean motion
15.25119498 rev/d
Perigee alt
488.6 km
Apogee alt
492.2 km
Semi-major
6,868.6 km
B*
3.4188e-5
RAAN
128.5398°
Arg perigee
279.6226°
Mean anomaly
80.4502°
Rev number
6,443

§ Raw data

HJS-6D1 63431U 25067D   26145.23156017  .00000533  00000+0  34188-4 0  99982 63431  54.9895 128.5398 0002600 279.6226  80.4502 15.25119498 64438

JSON: /api/v1/satellites/63431 · /tle

For live sub-satellite position, see the globe view (requires WebGL).

§ Visibility from observer

Set your observer location to see the next 7 days of passes ≥ 10°. The values pass through the URL so the page stays shareable.

No JS? Fill the form by hand. The geolocation button needs JavaScript.